N1YZ Weather Reports


Display with metric or nautical units.
time (UTC)temp
F
wind
direction
speed
MPH
gust
MPH
rain 1hr
in
rain 24hr
in
rain mn
in
humidity
%
barometer
mb
20260831115353 73 61 0.0 0.0 0.00 0.00 0.00 98 1039.3
20260831114852 73 40 0.0 0.0 0.00 0.00 0.00 98 1039.3
20260831114351 73 44 0.0 0.0 0.00 0.00 0.00 98 1039.3
20260831113848 73 65 0.0 0.0 0.00 0.00 0.00 98 1039.3
20260831113347 73 12 0.0 0.0 0.00 0.00 0.00 97 1039.2
20260831112848 73 14 0.0 0.0 0.00 0.00 0.00 97 1039.1
20260831112342 73 40 0.0 0.0 0.00 0.00 0.00 97 1039.1
20260831111838 73 40 0.0 0.0 0.00 0.00 0.00 97 1038.9
20260831111334 73 41 0.0 0.0 0.00 0.00 0.00 97 1039.0
20260831110829 73 52 0.0 0.0 0.00 0.00 0.00 97 1038.8
20260831110324 74 1 0.0 0.0 0.00 0.00 0.00 96 1038.8
20260831105822 74 356 0.0 0.0 0.00 0.00 0.00 96 1038.7
20260831105318 74 352 0.0 0.0 0.00 0.00 0.00 96 1038.7
20260831104813 74 14 0.0 0.0 0.00 0.00 0.00 96 1038.9
20260831104309 74 9 0.0 0.0 0.00 0.00 0.00 95 1038.7
20260831103804 74 12 0.0 0.0 0.00 0.00 0.00 95 1038.7
20260831103300 75 264 1.0 1.0 0.00 0.00 0.00 95 1038.6
20260831102759 75 346 0.0 0.0 0.00 0.00 0.00 94 1038.8
20260831102254 75 339 0.0 0.0 0.00 0.00 0.00 94 1038.6
20260831101750 74 321 0.0 0.0 0.00 0.00 0.00 96 1038.5
20260831101245 74 357 0.0 0.0 0.00 0.00 0.00 96 1038.6
20260831100741 74 347 0.0 0.0 0.00 0.00 0.00 96 1038.7
20260831100237 74 290 0.0 0.0 0.00 0.00 0.00 96 1038.7
20260831095736 74 322 0.0 0.0 0.00 0.00 0.00 96 1038.4
20260831095230 74 357 0.0 0.0 0.00 0.00 0.00 95 1038.5
20260831094725 74 6 0.0 0.0 0.00 0.00 0.00 95 1038.5
20260831094221 74 6 0.0 0.0 0.00 0.00 0.00 95 1038.6
20260831093717 74 6 0.0 0.0 0.00 0.00 0.00 94 1038.5
20260831093212 75 6 0.0 0.0 0.00 0.00 0.00 94 1038.5
20260831092709 75 6 0.0 0.0 0.00 0.00 0.00 94 1038.3
20260831092204 75 5 0.0 0.0 0.00 0.00 0.00 94 1038.4
20260831091703 75 23 0.0 0.0 0.00 0.00 0.00 94 1038.4
20260831091159 75 11 0.0 0.0 0.00 0.00 0.00 93 1038.5
20260831090654 75 9 0.0 0.0 0.00 0.00 0.00 93 1038.6
20260831090150 75 8 0.0 0.0 0.00 0.00 0.00 93 1038.4
20260831085645 75 27 0.0 0.0 0.00 0.00 0.00 93 1038.2
20260831085140 75 28 0.0 0.0 0.00 0.00 0.00 93 1038.3
20260831084636 75 28 0.0 0.0 0.00 0.00 0.00 93 1038.2
20260831084132 75 0 0.0 0.0 0.00 0.00 0.00 93 1038.1
20260831083628 75 359 0.0 0.0 0.00 0.00 0.00 93 1038.1
20260831083123 75 359 0.0 0.0 0.00 0.00 0.00 92 1038.1
20260831082621 75 359 0.0 0.0 0.00 0.00 0.00 92 1038.0
20260831082117 75 359 0.0 0.0 0.00 0.00 0.00 92 1038.0
20260831081612 75 359 0.0 0.0 0.00 0.00 0.00 91 1037.9
20260831081108 75 26 0.0 0.0 0.00 0.00 0.00 91 1037.9
20260831080603 75 26 0.0 0.0 0.00 0.00 0.00 91 1038.1
20260831080058 76 3 0.0 0.0 0.00 0.00 0.00 91 1037.8
20260831075554 76 271 1.0 1.0 0.00 0.00 0.00 91 1038.0
20260831075049 76 11 0.0 0.0 0.00 0.00 0.00 90 1037.9
20260831074548 76 15 0.0 0.0 0.00 0.00 0.00 90 1037.9
20260831074043 77 12 0.0 0.0 0.00 0.00 0.00 89 1037.8
20260831073538 77 12 0.0 0.0 0.00 0.00 0.00 89 1037.9
20260831073038 77 10 0.0 0.0 0.00 0.00 0.00 89 1037.8
20260831072533 76 315 0.0 0.0 0.00 0.00 0.00 90 1037.8
20260831072030 76 189 0.0 0.0 0.00 0.00 0.00 90 1038.0
20260831071528 76 185 1.0 1.0 0.00 0.00 0.00 90 1037.8
20260831071024 77 114 1.0 1.0 0.00 0.00 0.00 89 1038.1
20260831070522 77 266 0.0 0.0 0.00 0.00 0.00 89 1037.9
20260831070018 77 276 0.0 0.0 0.00 0.00 0.00 89 1037.8
20260831065515 77 325 0.0 0.0 0.00 0.00 0.00 88 1037.8
20260831065010 77 358 0.0 0.0 0.00 0.00 0.00 87 1037.7
20260831064505 77 358 0.0 0.0 0.00 0.00 0.00 87 1037.8
20260831064001 78 348 0.0 0.0 0.00 0.00 0.00 87 1038.0
20260831063456 78 354 0.0 0.0 0.00 0.00 0.00 86 1037.9
20260831062955 78 359 0.0 0.0 0.00 0.00 0.00 87 1037.9
20260831062451 78 2 0.0 0.0 0.00 0.00 0.00 86 1037.8
20260831061950 78 4 0.0 0.0 0.00 0.00 0.00 86 1037.6
20260831061448 78 357 0.0 0.0 0.00 0.00 0.00 85 1037.6
20260831060945 78 5 0.0 0.0 0.00 0.00 0.00 85 1037.8
20260831060440 78 5 0.0 0.0 0.00 0.00 0.00 85 1037.7
20260831055939 78 354 0.0 0.0 0.00 0.00 0.00 85 1037.6
20260831055434 78 14 0.0 0.0 0.00 0.00 0.00 85 1037.9
20260831054930 78 354 0.0 0.0 0.00 0.00 0.00 85 1037.9
20260831054430 79 353 0.0 0.0 0.00 0.00 0.00 84 1038.0
20260831053924 78 357 0.0 0.0 0.00 0.00 0.00 85 1038.1
20260831053422 78 357 0.0 0.0 0.00 0.00 0.00 85 1038.1
20260831052917 78 343 0.0 0.0 0.00 0.00 0.00 84 1038.1
20260831052416 78 343 0.0 0.0 0.00 0.00 0.00 84 1038.1
20260831051914 79 343 0.0 0.0 0.00 0.00 0.00 84 1038.1
20260831051413 79 343 0.0 0.0 0.00 0.00 0.00 85 1038.2
20260831050908 78 343 0.0 0.0 0.00 0.00 0.00 84 1038.2
20260831050402 79 343 0.0 0.0 0.00 0.00 0.00 85 1038.4
20260831045856 79 343 0.0 0.0 0.00 0.00 0.00 85 1038.4
20260831045355 79 347 0.0 0.0 0.00 0.00 0.00 84 1038.3
20260831044850 79 346 0.0 0.0 0.00 0.00 0.00 84 1038.3
20260831044345 79 348 0.0 0.0 0.00 0.00 0.00 84 1038.2
20260831043841 79 348 0.0 0.0 0.00 0.00 0.00 85 1038.3
20260831043340 79 20 0.0 0.0 0.00 0.00 0.00 84 1038.2
20260831042835 79 16 0.0 0.0 0.00 0.00 0.00 83 1038.2
20260831042335 79 16 0.0 0.0 0.00 0.00 0.00 83 1038.2
20260831041831 79 17 0.0 0.0 0.00 0.00 0.00 83 1038.2
20260831041330 79 17 0.0 0.0 0.00 0.00 0.00 83 1038.2
20260831040825 79 16 0.0 0.0 0.00 0.00 0.00 82 1038.0
20260831040324 79 16 0.0 0.0 0.00 0.00 0.00 82 1038.0
20260831035823 79 16 0.0 0.0 0.00 0.00 0.00 82 1037.9
20260831035321 79 16 0.0 0.0 0.00 0.00 0.00 82 1038.0
20260831034816 79 14 0.0 0.0 0.00 0.00 0.00 82 1038.1
20260831034312 79 3 0.0 0.0 0.00 0.00 0.00 83 1038.1
20260831033807 80 349 0.0 0.0 0.00 0.00 0.00 83 1038.2
20260831033307 80 341 0.0 0.0 0.00 0.00 0.00 82 1038.1
20260831032803 80 350 0.0 0.0 0.00 0.00 0.00 83 1038.4
20260831032257 79 351 0.0 0.0 0.00 0.00 0.00 82 1038.2
20260831031752 79 351 0.0 0.0 0.00 0.00 0.00 82 1038.3
20260831031251 79 351 0.0 0.0 0.00 0.00 0.00 82 1038.0
20260831030746 79 351 0.0 0.0 0.00 0.00 0.00 82 1038.1
20260831030244 79 351 0.0 0.0 0.00 0.00 0.00 82 1037.9
20260831025744 79 351 0.0 0.0 0.00 0.00 0.00 83 1038.3
20260831025238 80 351 0.0 0.0 0.00 0.00 0.00 83 1037.9
20260831024735 80 351 0.0 0.0 0.00 0.00 0.00 82 1038.2
20260831024233 80 351 0.0 0.0 0.00 0.00 0.00 82 1038.0
20260831023732 80 351 0.0 0.0 0.00 0.00 0.00 83 1038.0
20260831023231 80 351 0.0 0.0 0.00 0.00 0.00 83 1038.1
20260831022727 80 351 0.0 0.0 0.00 0.00 0.00 83 1038.1
20260831022221 80 351 0.0 0.0 0.00 0.00 0.00 82 1038.0
20260831021720 80 351 0.0 0.0 0.00 0.00 0.00 82 1038.0
20260831021215 80 351 0.0 0.0 0.00 0.00 0.00 81 1038.2
20260831020712 80 351 0.0 0.0 0.00 0.00 0.00 81 1037.9
20260831020211 81 351 0.0 0.0 0.00 0.00 0.00 81 1038.0
20260831015706 81 351 0.0 0.0 0.00 0.00 0.00 81 1038.0
20260831015201 81 351 0.0 0.0 0.00 0.00 0.00 80 1037.7
20260831014656 81 351 0.0 0.0 0.00 0.00 0.00 79 1037.5
20260831014151 82 351 0.0 0.0 0.00 0.00 0.00 79 1037.7
20260831013647 82 351 0.0 0.0 0.00 0.00 0.00 78 1037.8
20260831013146 82 351 0.0 0.0 0.00 0.00 0.00 78 1037.6
20260831012642 82 351 0.0 0.0 0.00 0.00 0.00 77 1037.7
20260831012137 82 351 0.0 0.0 0.00 0.00 0.00 77 1037.5
20260831011636 82 351 0.0 0.0 0.00 0.00 0.00 76 1037.4
20260831011132 83 351 0.0 0.0 0.00 0.00 0.00 76 1037.3
20260831010627 83 351 0.0 0.0 0.00 0.00 0.00 75 1037.5
20260831010123 83 351 0.0 0.0 0.00 0.00 0.00 75 1037.2
20260831005617 83 350 0.0 0.0 0.00 0.00 0.00 74 1037.1
20260831005112 84 11 0.0 0.0 0.00 0.00 0.00 73 1037.2
20260831004608 84 11 0.0 0.0 0.00 0.00 0.00 73 1037.4
20260831004103 84 359 0.0 0.0 0.00 0.00 0.00 72 1037.4
20260831003600 85 352 0.0 0.0 0.00 0.00 0.00 71 1037.3
20260831003055 85 22 0.0 0.0 0.00 0.00 0.00 70 1037.1
20260831002554 85 351 0.0 0.0 0.00 0.00 0.00 69 1037.3
20260831002049 85 21 0.0 0.0 0.00 0.00 0.00 69 1037.1
20260831001544 86 19 0.0 0.0 0.00 0.00 0.00 69 1037.2
20260831001041 86 19 0.0 0.0 0.00 0.00 0.00 68 1037.0
20260831000537 86 13 0.0 0.0 0.00 0.00 0.00 68 1037.1
20260831000036 86 22 0.0 0.0 0.00 0.00 0.00 68 1037.0
20260830235535 86 342 0.0 0.0 0.00 0.00 0.00 67 1037.3
20260830235031 86 354 0.0 0.0 0.00 0.00 0.00 67 1037.3
20260830234525 86 22 0.0 0.0 0.00 0.00 0.00 67 1037.1
20260830234021 87 341 0.0 0.0 0.00 0.00 0.00 67 1037.0
20260830233516 87 14 0.0 0.0 0.00 0.00 0.00 66 1037.2
20260830233012 87 355 0.0 0.0 0.00 0.00 0.00 66 1037.0
20260830232508 87 15 0.0 0.0 0.00 0.00 0.00 66 1036.9
20260830232004 87 1 0.0 0.0 0.00 0.00 0.00 66 1037.0
20260830231459 87 8 0.0 0.0 0.00 0.00 0.00 66 1037.1
20260830230958 87 8 0.0 0.0 0.00 0.00 0.00 66 1036.9
20260830230454 87 348 0.0 0.0 0.00 0.00 0.00 66 1037.1
20260830225952 87 22 0.0 0.0 0.00 0.00 0.00 66 1037.0
20260830225449 87 349 0.0 0.0 0.00 0.00 0.00 67 1037.0
20260830224948 87 17 0.0 0.0 0.00 0.00 0.00 66 1037.0
20260830224447 87 354 0.0 0.0 0.00 0.00 0.00 67 1036.8
20260830223944 88 353 0.0 0.0 0.00 0.00 0.00 66 1036.9
20260830223441 87 347 0.0 0.0 0.00 0.00 0.00 65 1036.6
20260830222939 87 355 0.0 0.0 0.00 0.00 0.00 66 1036.8
20260830222435 87 340 0.0 0.0 0.00 0.00 0.00 68 1036.8
20260830221930 87 29 0.0 0.0 0.00 0.00 0.00 69 1036.8
20260830221426 88 16 0.0 0.0 0.00 0.00 0.00 65 1036.8
20260830220921 87 346 1.0 1.0 0.00 0.00 0.00 66 1036.7
20260830220416 87 6 0.0 0.0 0.00 0.00 0.00 67 1036.8
20260830215914 87 11 0.0 0.0 0.00 0.00 0.00 68 1036.8
20260830215409 88 159 1.0 3.0 0.00 0.00 0.00 65 1036.7
20260830214903 88 346 1.0 1.0 0.00 0.00 0.00 65 1036.7
20260830214359 88 54 0.0 0.0 0.00 0.00 0.00 63 1037.0
20260830213853 88 287 0.0 0.0 0.00 0.00 0.00 64 1036.9
20260830213348 88 20 0.0 0.0 0.00 0.00 0.00 64 1037.1
20260830212844 88 1 0.0 0.0 0.00 0.00 0.00 66 1037.1
20260830212340 88 26 0.0 0.0 0.00 0.00 0.00 64 1037.1
20260830211839 88 30 0.0 0.0 0.00 0.00 0.00 64 1037.0
20260830211333 89 350 2.0 2.0 0.00 0.00 0.00 69 1037.1
20260830210829 88 4 1.0 1.0 0.00 0.00 0.00 67 1037.0
20260830210328 88 12 0.0 0.0 0.00 0.00 0.00 67 1037.4
20260830205826 89 5 0.0 0.0 0.00 0.00 0.00 65 1037.3
20260830205325 89 139 0.0 1.0 0.00 0.00 0.00 64 1037.4
20260830204821 89 3 0.0 0.0 0.00 0.00 0.00 64 1037.6
20260830204320 89 54 0.0 1.0 0.00 0.00 0.00 65 1037.3
20260830203816 88 39 0.0 0.0 0.00 0.00 0.00 64 1037.3
20260830203312 88 148 1.0 1.0 0.00 0.00 0.00 64 1037.5
20260830202811 88 21 1.0 1.0 0.00 0.00 0.00 68 1037.7
20260830202306 88 7 1.0 1.0 0.00 0.00 0.00 67 1037.7
20260830201801 88 24 0.0 0.0 0.00 0.00 0.00 68 1037.6
20260830201255 88 345 1.0 1.0 0.00 0.00 0.00 66 1037.9
20260830200751 89 5 0.0 0.0 0.00 0.00 0.00 67 1037.9
20260830200250 89 9 0.0 0.0 0.00 0.00 0.00 66 1037.8
20260830195746 89 23 0.0 0.0 0.00 0.00 0.00 64 1037.9
20260830195245 89 357 1.0 1.0 0.00 0.00 0.00 66 1037.9
20260830194743 88 3 0.0 0.0 0.00 0.00 0.00 68 1038.1
20260830194238 88 14 0.0 0.0 0.00 0.00 0.00 66 1037.9
20260830193737 87 34 0.0 0.0 0.00 0.00 0.00 66 1038.3
20260830193232 88 24 0.0 0.0 0.00 0.00 0.00 69 1038.4
20260830192728 89 19 2.0 3.0 0.00 0.00 0.00 65 1038.4
20260830192222 88 350 0.0 0.0 0.00 0.00 0.00 70 1038.3
20260830191719 88 35 0.0 0.0 0.00 0.00 0.00 68 1038.2
20260830191218 88 17 0.0 0.0 0.00 0.00 0.00 68 1038.0
20260830190714 89 27 0.0 0.0 0.00 0.00 0.00 64 1038.4
20260830190209 90 35 0.0 0.0 0.00 0.00 0.00 66 1038.2
20260830185707 90 19 0.0 0.0 0.00 0.00 0.00 65 1038.4
20260830185202 90 36 0.0 0.0 0.00 0.00 0.00 65 1038.4
20260830184702 91 357 0.0 0.0 0.00 0.00 0.00 64 1038.6
20260830184156 91 354 0.0 0.0 0.00 0.00 0.00 66 1038.4
20260830183651 91 0 0.0 0.0 0.00 0.00 0.00 64 1038.6
20260830183146 91 27 0.0 0.0 0.00 0.00 0.00 64 1038.7
20260830182641 89 339 1.0 1.0 0.00 0.00 0.00 67 1038.9
20260830182137 88 19 0.0 0.0 0.00 0.00 0.00 70 1038.8
20260830181633 88 23 0.0 1.0 0.00 0.00 0.00 69 1039.2
20260830181133 88 359 0.0 0.0 0.00 0.00 0.00 68 1038.9
20260830180632 88 10 0.0 1.0 0.00 0.00 0.00 70 1039.2
20260830180127 89 14 0.0 0.0 0.00 0.00 0.00 68 1039.5
20260830175626 87 26 0.0 0.0 0.00 0.00 0.00 70 1039.2
20260830175121 87 18 0.0 0.0 0.00 0.00 0.00 72 1039.3
20260830174617 86 23 0.0 0.0 0.00 0.00 0.00 72 1039.3
20260830174112 86 30 0.0 0.0 0.00 0.00 0.00 72 1039.4
20260830173607 86 5 0.0 0.0 0.00 0.00 0.00 72 1039.5
20260830173102 86 63 1.0 1.0 0.00 0.00 0.00 69 1039.5
20260830172559 86 14 0.0 1.0 0.00 0.00 0.00 76 1039.8
20260830172055 85 18 0.0 0.0 0.00 0.00 0.00 73 1039.8
20260830171550 85 19 0.0 0.0 0.00 0.00 0.00 73 1039.8
20260830171044 86 35 1.0 1.0 0.00 0.00 0.00 73 1039.9
20260830170539 86 13 0.0 0.0 0.00 0.00 0.00 74 1039.8
20260830170038 85 20 0.0 0.0 0.00 0.00 0.00 74 1039.9
20260830165533 86 20 1.0 2.0 0.00 0.00 0.00 77 1040.1
20260830165029 86 349 1.0 1.0 0.00 0.00 0.00 76 1040.0
20260830164525 85 33 1.0 2.0 0.00 0.00 0.00 75 1040.2
20260830164021 85 359 0.0 0.0 0.00 0.00 0.00 75 1040.0
20260830163518 85 17 0.0 0.0 0.00 0.00 0.00 77 1040.3
20260830163016 84 24 0.0 0.0 0.00 0.00 0.00 78 1040.5
20260830162512 84 12 0.0 0.0 0.00 0.00 0.00 78 1040.4
20260830162007 84 358 0.0 0.0 0.00 0.00 0.00 81 1040.4
20260830161501 84 12 0.0 0.0 0.00 0.00 0.00 80 1040.4
20260830160955 84 26 0.0 0.0 0.00 0.00 0.00 80 1040.6
20260830160447 84 117 2.0 3.0 0.00 0.00 0.00 78 1040.6
20260830155941 84 357 0.0 0.0 0.00 0.00 0.00 80 1040.5
20260830155438 83 355 0.0 0.0 0.00 0.00 0.00 82 1040.7
20260830154933 82 353 0.0 0.0 0.00 0.00 0.00 83 1040.9
20260830154428 82 344 0.0 0.0 0.00 0.00 0.00 83 1040.7
20260830153925 82 9 0.0 0.0 0.00 0.00 0.00 85 1040.8
20260830153420 82 352 0.0 0.0 0.00 0.00 0.00 85 1040.5
20260830152919 83 20 0.0 0.0 0.00 0.00 0.00 84 1040.6
20260830152414 82 3 0.0 0.0 0.00 0.00 0.00 84 1040.5
20260830151907 81 37 0.0 0.0 0.00 0.00 0.00 84 1040.4
20260830151402 81 18 0.0 0.0 0.00 0.00 0.00 87 1040.7
20260830150857 81 353 1.0 1.0 0.00 0.00 0.00 86 1040.6
20260830150356 80 11 0.0 0.0 0.00 0.00 0.00 88 1040.6
20260830145851 81 351 0.0 0.0 0.00 0.00 0.00 89 1040.5
20260830145346 80 20 0.0 0.0 0.00 0.00 0.00 88 1040.8
20260830144841 81 20 0.0 0.0 0.00 0.00 0.00 87 1040.6
20260830144337 81 17 0.0 0.0 0.00 0.00 0.00 86 1040.7
20260830143832 81 16 0.0 0.0 0.00 0.00 0.00 86 1040.7
20260830143332 82 9 0.0 0.0 0.00 0.00 0.00 86 1040.5
20260830142826 82 356 0.0 1.0 0.00 0.00 0.00 86 1040.5
20260830142321 81 22 0.0 0.0 0.00 0.00 0.00 86 1040.8
20260830141816 80 19 0.0 0.0 0.00 0.00 0.00 89 1040.6
20260830141311 79 3 0.0 0.0 0.00 0.00 0.00 89 1040.6
20260830140807 79 11 0.0 0.0 0.00 0.00 0.00 91 1040.6
20260830140307 78 348 1.0 1.0 0.00 0.00 0.00 91 1040.6
20260830135801 78 20 0.0 0.0 0.00 0.00 0.00 93 1040.7
20260830135257 78 353 0.0 0.0 0.00 0.00 0.00 93 1040.7
20260830134752 77 41 0.0 0.0 0.00 0.00 0.00 93 1040.5
20260830134247 77 21 0.0 0.0 0.00 0.00 0.00 94 1040.7
20260830133743 77 22 0.0 0.0 0.00 0.00 0.00 95 1040.8
20260830133239 77 356 0.0 0.0 0.00 0.00 0.00 96 1040.7
20260830132734 76 15 0.0 0.0 0.00 0.00 0.00 96 1040.7
20260830132230 76 358 0.0 0.0 0.00 0.00 0.00 97 1040.5
20260830131728 76 358 0.0 0.0 0.00 0.00 0.00 97 1040.3
20260830131223 75 33 0.0 0.0 0.00 0.00 0.00 97 1040.6
20260830130713 75 14 0.0 0.0 0.00 0.00 0.00 98 1040.5
20260830130213 75 16 0.0 0.0 0.00 0.00 0.00 98 1040.5
20260830125712 75 16 0.0 0.0 0.00 0.00 0.00 98 1040.3
20260830125207 74 17 0.0 0.0 0.00 0.00 0.00 98 1040.3
20260830124705 74 28 0.0 0.0 0.00 0.00 0.00 98 1040.2
20260830124201 74 82 0.0 0.0 0.00 0.00 0.00 98 1040.2
20260830123658 74 74 0.0 0.0 0.00 0.00 0.00 98 1040.1
20260830123153 74 55 0.0 0.0 0.00 0.00 0.00 98 1040.2
20260830122650 74 3 0.0 0.0 0.00 0.00 0.00 98 1040.0
20260830122145 74 331 0.0 0.0 0.00 0.00 0.00 99 1040.0
20260830121641 73 324 0.0 0.0 0.00 0.00 0.00 99 1040.0
20260830121140 73 68 0.0 0.0 0.00 0.00 0.00 99 1040.1
20260830120635 73 90 0.0 0.0 0.00 0.00 0.00 99 1040.0
20260830120132 73 81 0.0 0.0 0.00 0.00 0.00 99 1039.8
20260830115628 73 71 0.0 0.0 0.00 0.00 0.00 99 1040.0